Home > Weather > Sanikiluaq > Past weeks

Flag for Canada Past Weather in Sanikiluaq, Nunavut, Canada — Yesterday and Last 2 Weeks

Now
37 °F

Low clouds.


Feels Like: 31 °F
Forecast: 35 / 36 °F
Wind: 9 mph from Southwest

Location: Kuujjuarapik

Current Time: Jul 1, 2016 at 12:34:30 AM

Latest Report: Jul 1, 2016 at 12:00 AM


Visibility: 7 mi

Pressure: 29.83 "Hg

Humidity: 93%

Dew Point: 36 °F

Location of SanikiluaqLocation

Past Weather in Sanikiluaq — Graph

°F

Sanikiluaq Temperature Yesterday

Maximum temperature yesterday: 61 °F (at 12:00 AM)
Minimum temperature yesterday: 37 °F (at 7:00 PM)
Average temperature yesterday: 46 °F

High & Low Weather Summary for the Past Weeks

 TemperatureHumidityPressure
High70 °F (Jun 29, 4:00 PM)100% (Jun 16, 2:00 AM)30.12 "Hg (Jun 16, 2:00 AM)
Low28 °F (Jun 23, 5:57 AM)27% (Jun 29, 5:00 PM)28.96 "Hg (Jun 20, 7:00 PM)
Average47 °F80%29.73 "Hg
* Reported Jun 15 11:00 PM — Jun 30 11:00 PM, Sanikiluaq, Weather by CustomWeather, © 2016

Note: Actual official high and low records may vary slightly from our data, if they occured in-between our weather recording intervals... More about our weather records

Advertising

Sanikiluaq Weather History for the Previous 24 Hours

Scroll right to see more
 ConditionsComfort  
Time TempWeatherWind HumidityBarometerVisibility
11:00 PM
Thu, Jun 30
37 °FMostly cloudy.8 mph93%29.83 "Hg9 mi
10:00 PM37 °FMostly cloudy.10 mph93%29.83 "Hg9 mi
9:00 PM37 °FLow clouds.9 mph93%29.83 "Hg9 mi
8:00 PM37 °FLow clouds.9 mph100%29.82 "Hg9 mi
7:00 PM37 °FLow clouds.12 mph100%29.82 "Hg9 mi
6:00 PM39 °FLow clouds.9 mph93%29.81 "Hg9 mi
5:00 PM41 °FLow clouds.10 mph93%29.80 "Hg9 mi
4:00 PM41 °FLight rain. Mostly cloudy.6 mph93%29.80 "Hg9 mi
3:52 PM41 °FLight rain. Cloudy.10 mph87%29.80 "Hg9 mi
3:00 PM43 °FBroken clouds.6 mph87%29.80 "Hg9 mi
2:00 PM43 °FBroken clouds.5 mph87%29.80 "Hg9 mi
1:54 PM43 °FBroken clouds.5 mph87%29.79 "Hg9 mi
1:00 PM41 °FLight rain. Overcast.5 mph93%29.80 "Hg9 mi
12:00 PM41 °FBroken clouds.13 mph93%29.80 "Hg9 mi
11:00 AM41 °FLight rain. More clouds than sun.8 mph100%29.79 "Hg9 mi
10:45 AM41 °FLight rain. Overcast.15 mph93%29.80 "Hg9 mi
10:00 AM46 °FMostly cloudy.9 mph82%29.77 "Hg9 mi
9:00 AM61 °FOvercast.5 mph55%29.75 "Hg9 mi
8:00 AM55 °FOvercast.3 mph63%29.76 "Hg9 mi
7:00 AM59 °FLight rain. Mostly cloudy.No wind51%29.76 "Hg9 mi
6:00 AM59 °FMore clouds than sun.8 mph42%29.76 "Hg9 mi
5:00 AM57 °FOvercast.9 mph48%29.78 "Hg9 mi
4:00 AM50 °FOvercast.3 mph71%29.78 "Hg9 mi
3:00 AM48 °FMostly cloudy.2 mph71%29.79 "Hg9 mi
2:00 AM50 °FPassing clouds.6 mph76%29.80 "Hg9 mi
1:00 AM52 °FPassing clouds.5 mph82%29.80 "Hg9 mi
12:00 AM61 °FClear.8 mph48%29.80 "Hg9 mi
Weather by CustomWeather, © 2016

See weather overviewHow to use our weather pages